Location: Korczew
(51.3586°N, 19.4491°E)
Time: 05:55:39
(UTC+00:00)

Cosmos 1470 Rocket - Pass Details

Date: 13 August 2025
Orbit: 597 x 626 km, 82.5° (Epoch: 14 December)

Event Time Altitude Azimuth Distance (km) Brightness Sun altitude
Exits shadow 02:06:55 14° 212° (SSW) 1,730 5.2 -11.1°
Maximum altitude 02:10:31 50° 285° (WNW) 807 3.9 -10.6°
Drops below altitude 10° 02:14:52 10° 1° (N) 2,014 6.8 -10.1°
Sets 02:17:10 0° 7° (N) 2,923 7.8 -9.8°
